Location: Limerick
(52.6650°N, 8.6230°W)
Time: 19:20:45
(UTC+01:00)

ISS - Pass Details

Date: 27 May 2017
Orbit: 402 x 408 km, 51.6° (Epoch: 29 May)

Event Time Altitude Azimuth Distance (km) Brightness Sun altitude
Rises 01:29:42 0° 274° (W) 2,334 0.1 -16.0°
Reaches altitude 10° 01:31:47 10° 272° (W) 1,471 -1.0 -16.0°
Maximum altitude 01:35:04 68° 190° (S) 442 -4.0 -16.0°
Drops below altitude 10° 01:38:20 10° 106° (ESE) 1,465 -1.2 -16.0°
Sets 01:40:25 0° 104° (ESE) 2,323 -0.1 -16.0°
